Time,B instrument,Bx,By,Bz,sigma B,Ion instrument,Status,Tp_par,Tp_perp,carrot,r_sun,clat,clong,earth_he_angle,n_p,vp_x,vp_y,vp_z,vth_p_par,vth_p_perp
1980-03-03 00:00:14,1,-4.8,0.242857,0.357143,0.276273,1,1,24553.5,40396.0,1692,0.97947198,-0.97576487,130.09106,281.06763,2.6161,353.16,-13.3621,-8.16121,20.1333,25.8242
1980-03-03 00:01:35,1,-4.55714,0.0571429,0.757143,0.762648,1,1,65660.6,48413.1,1692,0.97947103,-0.97582591,130.0791,281.06738,3.32314,354.14,5.92808,8.15639,32.9238,28.2709
1980-03-03 00:02:56,1,-4.11429,-2.51429,0.4,0.292072,1,1,29832.9,39888.1,1692,0.97947013,-0.97588694,130.06714,281.06714,2.53358,350.805,-31.6915,-4.76629,22.1925,25.6613
1980-03-03 00:04:17,1,-3.9,-2.11429,-0.7,0.522162,1,1,37298.6,49447.9,1692,0.97946835,-0.97600901,130.05493,281.06665,2.85961,352.646,-30.8669,-6.74259,24.8144,28.5714
1980-03-03 00:05:38,1,-3.0,-4.4,0.742857,0.139971,1,1,59503.6,48783.1,1692,0.97946739,-0.97607005,130.04297,281.06641,2.76194,365.186,-48.8221,4.8557,31.3422,28.3787
1980-03-03 00:06:59,1,-3.425,-3.55,0.55,0.547152,1,1,58702.5,41003.3,1692,0.9794665,-0.97613108,130.0271,281.06616,2.84623,360.168,-38.5679,-3.16874,31.1305,26.0176
1980-03-03 00:08:20,1,-2.68571,-3.75714,-0.628571,0.486973,1,1,61095.6,46204.7,1692,0.97946471,-0.97625315,130.01514,281.06592,2.73998,370.309,-48.8121,-8.59312,31.7587,27.6186
1980-03-03 00:09:41,1,-2.9,-3.34286,-0.1,0.49816,1,1,76731.4,33645.6,1692,0.97946382,-0.97631419,130.00317,281.06567,2.75089,367.256,-37.3037,-6.27001,35.5914,23.568
1980-03-03 00:11:02,1,-2.81429,-2.98571,-0.771429,0.882483,1,1,44531.5,35279.3,1692,0.97946197,-0.9764362,129.99097,281.06519,2.63385,373.281,-40.9542,-18.278,27.1139,24.1334
1980-03-03 00:12:23,-1,nan,nan,nan,nan,1,4,nan,nan,1692,0.97946107,-0.97649729,129.979,281.06494,nan,nan,nan,nan,nan,nan
1980-03-03 00:13:44,1,-3.51429,-2.85714,0.4,0.289264,1,1,55799.1,36385.2,1692,0.97946018,-0.97655833,129.96729,281.06494,2.59107,367.029,-42.6637,-12.276,30.3509,24.5087
1980-03-03 00:15:05,1,-3.21429,-3.24286,0.385714,0.577468,1,1,56233.1,46376.5,1692,0.97945833,-0.97668034,129.95117,281.06445,3.56945,363.911,-42.3132,-6.03337,30.4687,27.6698
1980-03-03 00:16:26,1,-3.47143,-3.35714,0.457143,0.356285,1,1,60038.8,38735.5,1692,0.97945744,-0.97674143,129.93921,281.06421,2.79396,364.929,-49.9295,-3.28072,31.4828,25.2879
1980-03-03 00:19:08,1,-4.32857,-1.4,2.91429,0.630516,1,1,32031.6,14071.0,1692,0.9794547,-0.97692448,129.91504,281.06348,1.65425,348.78,-31.7893,29.402,22.9957,15.2412
1980-03-03 00:20:29,1,-4.07143,1.11429,2.24286,0.358569,1,1,26475.7,68570.8,1692,0.9794538,-0.97698557,129.90332,281.06348,2.28746,346.363,0.206128,16.0999,20.9065,33.6455
1980-03-03 00:21:50,1,-4.81429,0.457143,1.94286,0.251526,1,1,24323.9,22649.1,1692,0.97945291,-0.97704661,129.89136,281.06323,2.7072,354.343,-2.16775,18.9078,20.0389,19.3368
1980-03-03 00:23:11,1,-4.66667,0.433333,2.05,0.327024,1,1,36317.8,52097.0,1692,0.97945112,-0.97716862,129.87524,281.06274,2.59406,347.054,-2.96141,17.4975,24.486,29.3268
1980-03-03 00:24:32,1,-4.78571,0.0571429,1.97143,0.20702,1,1,27743.8,26491.8,1692,0.97945017,-0.97722971,129.86328,281.0625,2.61966,352.042,-5.10146,20.0593,21.4013,20.9129
1980-03-03 00:25:53,1,-4.61429,-0.471429,2.45714,0.261861,1,1,36690.2,50548.0,1692,0.97944927,-0.97729075,129.85132,281.06226,2.91657,348.826,-9.30287,21.1599,24.6112,28.8875
1980-03-03 00:27:14,1,-4.92857,-0.528571,2.4,0.188442,1,1,26459.9,23190.4,1692,0.97944748,-0.97741276,129.83936,281.06201,2.49093,352.706,-10.3119,21.2719,20.9003,19.5664
1980-03-03 00:28:35,1,-4.9,-0.914286,1.82857,0.441241,1,1,27420.1,22873.3,1692,0.97944653,-0.97747386,129.82739,281.06177,2.13445,344.882,-19.624,15.1561,21.2761,19.4322
1980-03-03 00:29:56,1,-4.88571,-1.08571,1.72857,0.285714,1,1,26777.5,39959.9,1692,0.97944564,-0.97753489,129.81543,281.06152,2.44001,350.836,-24.3731,16.7066,21.0253,25.6844
1980-03-03 00:31:17,1,-4.75,-1.15,1.93333,0.306413,1,1,29237.6,46329.9,1692,0.97944385,-0.9776569,129.79932,281.06104,2.44861,346.415,-18.6114,20.9933,21.9699,27.656
1980-03-03 00:32:38,1,-4.68333,-0.7,1.93333,0.300463,1,1,27802.5,40246.9,1692,0.97944295,-0.977718,129.78735,281.06079,2.47527,350.202,-15.6534,18.7652,21.424,25.7765
1980-03-03 00:33:59,1,-4.47143,-1.65714,2.11429,0.354562,1,1,25008.2,29709.1,1692,0.979442,-0.97777903,129.77563,281.06079,2.20369,345.943,-21.8424,17.5045,20.3188,22.1464
1980-03-03 00:35:20,1,-3.91429,-2.15714,2.85714,0.245781,1,1,27614.4,35811.7,1692,0.97944021,-0.97790104,129.76343,281.0603,2.34219,351.53,-31.0486,29.5151,21.3514,24.3148
1980-03-03 00:36:41,1,-3.77143,-2.47143,3.02857,0.367007,1,1,69355.3,26002.6,1692,0.97943932,-0.97796214,129.75146,281.06006,2.79535,361.136,-28.5634,29.395,33.8374,20.7189
1980-03-03 00:38:02,1,-4.6,-1.34286,1.65714,0.486134,1,1,34040.1,44044.0,1692,0.97943747,-0.97808415,129.73926,281.05957,2.21514,350.004,-20.19,6.64191,23.7057,26.965
1980-03-03 00:39:23,1,-4.84286,-0.742857,1.94286,0.640472,1,1,26518.0,36828.8,1692,0.97943658,-0.97814518,129.72339,281.05933,2.24225,344.888,-14.3944,18.8552,20.9232,24.6577
1980-03-03 00:40:44,1,-4.07143,-2.32857,2.91429,0.471645,1,1,36043.5,42342.7,1692,0.97943568,-0.97820628,129.71167,281.05933,2.26198,355.367,-38.7088,27.5815,24.3934,26.4391
1980-03-03 00:42:05,1,-4.3,-1.38571,2.08571,1.44406,1,1,41912.6,16040.2,1692,0.97943383,-0.97832829,129.69946,281.05884,2.45632,367.233,-27.6714,21.2231,26.3045,16.2728
1980-03-03 00:43:26,1,-4.63333,-0.733333,2.46667,0.408248,1,1,31604.7,40083.1,1692,0.97943294,-0.97838932,129.6875,281.05859,2.32733,349.137,-10.7394,22.6566,22.842,25.724
1980-03-03 00:44:47,1,-4.57143,-1.11429,2.4,0.178429,1,1,50283.4,54015.5,1692,0.97943205,-0.97845042,129.67554,281.05835,2.70716,348.016,-18.6452,17.7925,28.8118,29.8619
1980-03-03 00:46:08,1,-4.47143,-1.48571,2.22857,0.306394,1,1,42715.5,47960.7,1692,0.97943026,-0.97857243,129.66333,281.05786,2.73416,350.411,-29.2209,20.2744,26.5553,28.1385
1980-03-03 00:47:29,1,-4.7,-1.05714,2.51429,0.312984,1,1,23977.8,28800.4,1692,0.9794293,-0.97863346,129.64771,281.05786,2.12791,344.016,-19.5725,21.3427,19.8958,21.8051
1980-03-03 00:48:50,1,-4.57143,-0.114286,2.35714,0.329502,1,1,24670.8,46394.8,1692,0.97942841,-0.97869456,129.63574,281.05762,2.32638,347.691,-15.2141,23.9474,20.1813,27.6753
1980-03-03 00:50:11,1,-4.75,-0.3,1.31667,0.277889,1,1,19035.2,12823.1,1692,0.97942662,-0.97881657,129.62354,281.05713,3.58978,343.299,-17.374,16.2063,17.727,14.5497
1980-03-03 00:51:32,1,-4.92857,-0.757143,0.514286,0.311677,1,1,32570.1,35661.0,1692,0.97942573,-0.9788776,129.61157,281.05688,2.29633,349.022,-11.9512,2.10959,23.1882,24.2636
1980-03-03 00:52:53,1,-4.58571,-1.08571,0.4,0.198977,1,1,28023.1,34346.3,1692,0.97942477,-0.9789387,129.59961,281.05664,2.47401,344.839,-18.3784,-1.35365,21.5088,23.8121
1980-03-03 00:54:14,1,-4.72857,-0.171429,0.4,0.269542,1,1,31541.7,42507.2,1692,0.97942299,-0.97906071,129.58765,281.0564,2.40515,351.984,-6.58133,-3.7508,22.8192,26.4904
1980-03-03 00:55:35,1,-4.73333,-1.63333,0.15,0.451233,1,1,41348.5,48623.9,1692,0.97942209,-0.97912174,129.57568,281.05615,2.79753,349.321,-27.2162,-6.35685,26.1269,28.3324
1980-03-03 00:56:56,1,-4.51429,-0.914286,1.85714,0.82931,1,1,34237.4,42070.3,1692,0.97942114,-0.97918284,129.55981,281.05591,2.42655,349.132,-29.8721,5.2019,23.7743,26.354
1980-03-03 00:58:17,1,-4.7,-1.08571,2.17143,0.363093,1,1,24256.6,25940.6,1692,0.97941935,-0.97930485,129.54761,281.05542,2.02619,344.648,-21.6427,16.54,20.0112,20.6941
1980-03-03 00:59:38,1,-4.65714,-1.8,0.871429,0.305059,1,1,32674.0,37305.6,1692,0.97941846,-0.97936589,129.53564,281.05518,2.38528,351.339,-30.895,3.60181,23.2252,24.8167
1980-03-03 01:00:59,1,-4.44286,-1.98571,0.685714,0.314934,1,1,53702.3,46037.0,1692,0.97941756,-0.97942698,129.52393,281.05518,2.70113,349.716,-30.3021,4.95264,29.7752,27.5684
1980-03-03 01:02:20,1,-4.5,-2.0,0.457143,0.139971,1,1,32091.8,35039.9,1692,0.97941571,-0.97954899,129.51172,281.05469,2.40586,350.832,-31.169,0.860158,23.0173,24.0513
1980-03-03 01:03:41,1,-4.46667,-1.46667,0.4,0.247207,1,1,85251.6,39400.5,1692,0.97941482,-0.97961003,129.49976,281.05444,2.84959,344.97,-25.6407,-2.33991,37.5154,25.504
1980-03-03 01:05:02,1,-4.53333,-1.5,0.4,0.349603,1,1,26488.1,37783.9,1692,0.97941297,-0.9797321,129.48364,281.05396,2.43327,351.187,-26.9443,-5.64983,20.9114,24.9753
1980-03-03 01:06:23,-1,nan,nan,nan,nan,1,4,nan,nan,1692,0.97941208,-0.97979313,129.47168,281.05371,nan,nan,nan,nan,nan,nan
1980-03-03 01:07:44,1,-5.07143,-0.171429,1.65714,0.303718,1,1,29639.4,22915.4,1692,0.97941113,-0.97985417,129.45996,281.05371,2.50606,351.32,-3.49868,14.6723,22.1204,19.4501
1980-03-03 01:09:05,1,-4.77143,-0.271429,2.34286,0.257935,1,1,26965.5,22550.7,1692,0.97940934,-0.97997624,129.44775,281.05322,2.41131,345.935,-17.1332,20.52,21.099,19.2947
1980-03-03 01:10:26,1,-4.55714,-0.642857,3.02857,0.331355,1,1,17959.1,40570.1,1692,0.97940844,-0.98003727,129.43579,281.05298,2.2261,350.325,-11.8482,34.875,17.2187,25.8798
1980-03-03 01:11:47,1,-4.71429,-0.185714,2.34286,0.328261,1,1,24611.9,38350.2,1692,0.97940749,-0.98009837,129.42383,281.05273,2.33704,344.019,-7.63287,20.8343,20.1572,25.1618
1980-03-03 01:13:08,1,-4.27143,-1.32857,3.48571,0.328882,1,1,18990.7,42689.8,1692,0.9794057,-0.98022038,129.40796,281.05249,2.08036,351.301,-23.4099,34.8643,17.7063,26.5473
1980-03-03 01:14:29,1,-4.4,-1.25714,2.68571,0.351672,1,1,36090.2,43878.9,1692,0.97940475,-0.98028141,129.396,281.05225,2.42445,350.225,-21.3246,26.2563,24.4091,26.9145
1980-03-03 01:15:50,1,-4.7,0.1,2.03333,0.363624,1,1,28209.6,36008.8,1692,0.97940385,-0.98034251,129.38403,281.052,2.28734,351.067,-1.95207,20.1146,21.5803,24.3816
1980-03-03 01:17:11,1,-4.54286,-0.242857,2.24286,0.644917,1,1,21424.4,19533.7,1692,0.97940201,-0.98046452,129.37183,281.05151,2.13112,344.297,-14.382,16.5778,18.8067,17.9577
1980-03-03 01:18:32,1,-3.55714,1.95714,1.97143,1.19932,1,1,24714.5,23992.1,1692,0.97940111,-0.98052561,129.35986,281.05127,2.32374,353.144,2.883,20.043,20.1992,19.9018
1980-03-03 01:19:53,1,-3.85714,-1.2,3.47143,0.394865,1,1,32024.0,44359.6,1692,0.97940022,-0.98058665,129.3479,281.05103,2.38982,355.323,-23.1217,41.1192,22.993,27.0615
1980-03-03 01:21:14,1,-3.35714,-2.5,3.8,0.544734,1,1,37674.0,47910.9,1692,0.97939837,-0.98070866,129.33203,281.05078,2.5499,367.629,-42.3482,42.3568,24.939,28.1239
1980-03-03 01:22:35,1,-4.38571,-2.22857,3.12857,0.315582,1,1,25386.0,43869.8,1692,0.97939748,-0.98076975,129.32007,281.05054,2.37436,349.978,-37.8601,26.6581,20.4718,26.9117
1980-03-03 01:23:56,1,-4.41429,-1.84286,2.4,0.548467,1,1,32247.5,31532.3,1692,0.97939658,-0.98083079,129.30811,281.05029,2.49079,350.095,-32.1727,17.849,23.0731,22.8158
1980-03-03 01:25:17,1,-4.32857,-2.02857,2.17143,0.342857,1,1,43617.9,45102.7,1692,0.97939473,-0.98095286,129.2959,281.0498,2.56216,345.922,-31.6944,12.9123,26.8343,27.2872
1980-03-03 01:26:38,1,-3.8,0.871429,-0.671429,0.348173,1,1,26120.7,43904.8,1692,0.97939384,-0.98101389,129.28394,281.04956,2.44492,360.481,6.97416,-19.3369,20.7659,26.9224
1980-03-03 01:27:59,1,-4.02857,-0.542857,-0.485714,0.484031,1,1,34672.3,36754.6,1692,0.97939289,-0.98107493,129.27222,281.04956,2.24263,357.839,-18.136,-23.1138,23.9249,24.6328
1980-03-03 01:29:20,1,-4.24286,0.0714286,-0.542857,0.496929,1,1,23572.0,28342.1,1692,0.9793911,-0.981197,129.2561,281.04907,2.17091,353.397,-6.94,-21.712,19.7268,21.6309
1980-03-03 01:30:41,1,-3.21429,-0.8,-1.77143,0.393311,1,1,55299.0,19415.5,1692,0.9793902,-0.98125803,129.24414,281.04883,2.65909,367.247,-19.5697,-23.1689,30.2146,17.9032
1980-03-03 01:32:02,1,-3.35714,-0.6,-1.84286,0.63181,1,1,60018.3,27574.7,1692,0.97938836,-0.98138011,129.23193,281.04834,2.09733,374.095,-11.8253,-22.4918,31.4775,21.336
1980-03-03 01:33:23,1,-3.93333,-0.2,-1.03333,0.343188,1,1,32241.8,41488.1,1692,0.97938746,-0.98144114,129.22021,281.04834,2.30667,359.326,-10.5254,-23.428,23.0711,26.171
1980-03-03 01:34:44,1,-4.08571,-1.27143,-0.871429,0.345821,1,1,32157.7,43566.7,1692,0.97938651,-0.98150218,129.20825,281.0481,2.44098,353.821,-23.4841,-17.8401,23.041,26.8185
1980-03-03 01:36:05,1,-3.37143,0.585714,-1.01429,0.549211,1,1,27489.4,33754.0,1692,0.97938472,-0.98162425,129.19604,281.04761,1.9395,361.001,-1.87964,-27.3149,21.303,23.6059
1980-03-03 01:37:26,1,-3.88571,-0.328571,-1.41429,0.309707,1,1,33484.0,20756.6,1692,0.97938377,-0.98168528,129.18018,281.04736,2.53515,359.48,-6.86444,-19.6272,23.5113,18.5113
1980-03-03 01:38:47,1,-3.67143,-0.371429,-1.01429,0.320077,1,1,42386.1,13164.4,1692,0.97938287,-0.98174638,129.16821,281.04712,2.77103,363.396,-16.459,-17.6605,26.4527,14.7421
1980-03-03 01:40:08,1,-3.64286,-0.685714,-1.24286,0.283563,1,1,30074.2,16760.7,1692,0.97938108,-0.98186839,129.15625,281.04688,2.44722,360.454,-6.26578,-19.2159,22.282,16.6343
1980-03-03 01:41:29,1,-3.87143,-0.571429,-0.657143,1.06809,1,1,44613.4,35779.4,1692,0.97938013,-0.98192942,129.14429,281.04663,2.36312,356.673,-20.4702,-23.3556,27.1388,24.3038
1980-03-03 01:42:50,1,-4.6,0.9,0.3,0.226779,1,1,28069.2,36337.5,1692,0.97937924,-0.98199052,129.13232,281.04639,2.36497,350.877,1.40606,-2.8014,21.5265,24.4926
1980-03-03 01:44:11,1,-3.48333,0.3,-1.66667,0.538774,1,1,30011.7,39698.6,1692,0.97937739,-0.98211253,129.12012,281.0459,2.34547,359.438,-6.95281,-26.3883,22.2589,25.6003
1980-03-03 01:45:32,1,-4.45714,0.285714,0.1,0.496518,1,1,35044.0,48539.5,1692,0.97937649,-0.98217362,129.10425,281.04565,2.46393,350.818,-1.58387,-9.73225,24.0528,28.3078
1980-03-03 01:46:53,1,-4.11667,0.566667,-0.5,0.252212,1,1,14402.7,47656.3,1692,0.9793756,-0.98223466,129.09229,281.04541,2.39597,349.095,-0.929161,-15.4819,15.4198,28.049
1980-03-03 01:48:14,1,-4.23333,-0.05,0.0666667,0.690612,1,1,35756.7,42151.1,1692,0.97937375,-0.98235667,129.08032,281.04517,2.53894,349.007,-4.06461,-8.13077,24.2961,26.3792
1980-03-03 01:49:35,1,-4.15714,-0.414286,0.128571,0.663325,1,1,22177.8,45992.6,1692,0.97937286,-0.98241776,129.06836,281.04492,2.1249,344.711,-5.58097,-9.07807,19.1345,27.5551
1980-03-03 01:50:56,1,-4.45714,-0.357143,-0.0571429,0.432836,1,1,35950.3,47944.4,1692,0.97937196,-0.9824788,129.0564,281.04468,2.61177,350.327,-7.17064,-8.41382,24.3618,28.1337
1980-03-03 01:52:17,1,-4.22857,-0.428571,-0.628571,0.342857,1,1,38776.2,47167.0,1692,0.97937012,-0.98260087,129.04419,281.04419,2.54743,353.037,-13.5102,-17.3586,25.3012,27.9047
1980-03-03 01:53:38,1,-3.61429,-0.914286,-0.542857,0.671277,1,1,27414.5,16863.0,1692,0.97936922,-0.9826619,129.02856,281.04419,2.77422,359.682,-6.81111,-18.151,21.274,16.685
1980-03-03 01:54:59,1,-4.25,-1.65,0.4,0.158114,1,1,85472.0,41240.2,1692,0.97936827,-0.98272294,129.0166,281.04395,3.06026,353.085,-29.5034,-5.63497,37.5638,26.0926
1980-03-03 01:56:20,1,-4.04286,-1.65714,-0.0571429,0.470779,1,1,36729.4,36962.3,1692,0.97936648,-0.98284501,129.00439,281.04346,2.49314,350.407,-32.2954,-7.05155,24.6243,24.7023
1980-03-03 01:57:41,1,-4.05714,-0.8,0.485714,1.15423,1,1,24239.2,46803.5,1692,0.97936553,-0.98290604,128.99243,281.04321,2.21851,344.328,-5.88237,4.06375,20.004,27.7969
1980-03-03 01:59:02,1,-3.54286,-3.28571,1.2,0.24661,1,1,47886.0,47350.0,1692,0.97936374,-0.98302805,128.98022,281.04272,2.66912,358.092,-43.7954,4.2847,28.1166,27.9588
1980-03-03 02:00:23,1,-3.77143,-2.64286,0.457143,0.188442,1,1,59215.7,40104.9,1692,0.97936285,-0.98308915,128.96851,281.04272,2.77332,354.572,-34.7467,-2.56403,31.2663,25.731
1980-03-03 02:01:44,1,-4.15714,-1.25714,-0.0571429,0.467734,1,1,25349.8,46714.8,1692,0.97936189,-0.98315018,128.95654,281.04248,2.10648,350.17,-18.5532,-18.8173,20.4572,27.7706
1980-03-03 02:03:05,1,-3.81429,-1.37143,-0.1,0.498979,1,1,46463.7,52343.2,1692,0.97936004,-0.98327225,128.94043,281.04199,2.74852,354.867,-19.8948,-19.1674,27.6958,29.396
1980-03-03 02:04:26,1,-4.15714,-2.02857,0.685714,0.333809,1,1,38509.9,48292.1,1692,0.97935915,-0.98333329,128.92847,281.04175,2.53109,348.375,-28.6538,1.07435,25.2141,28.2355
1980-03-03 02:05:47,1,-4.6,-1.71429,0.914286,0.40305,1,1,36882.6,39363.3,1692,0.97935826,-0.98339438,128.9165,281.0415,2.35866,344.624,-21.4555,-3.92841,24.6757,25.492
1980-03-03 02:07:08,1,-4.25,-1.86667,0.8,0.30777,1,1,45322.9,48232.3,1692,0.97935641,-0.9835164,128.90454,281.04126,2.6659,347.749,-25.24,-0.0672435,27.3537,28.218
1980-03-03 02:08:29,1,-4.16667,-1.86667,0.4,0.166667,1,1,38816.1,48582.2,1692,0.97935545,-0.98357749,128.89258,281.04102,2.53519,343.411,-23.0912,-2.19718,25.3142,28.3202
1980-03-03 02:09:50,1,-4.41429,-1.14286,0.4,0.208982,1,1,31957.0,49191.8,1692,0.97935456,-0.98363853,128.88062,281.04077,2.61791,348.378,-21.272,-9.50273,22.9689,28.4973
1980-03-03 02:11:11,1,-4.17143,-1.32857,0.857143,0.505076,1,1,28160.5,33413.1,1692,0.97935271,-0.9837606,128.8645,281.04028,2.23318,341.99,-17.9046,10.2196,21.5615,23.4864
1980-03-03 02:12:32,1,-3.82857,-1.7,0.8,0.24908,1,1,35854.8,42277.8,1692,0.97935182,-0.98382163,128.85278,281.04028,2.38573,347.29,-29.0604,-1.11401,24.3294,26.4189
1980-03-03 02:13:53,1,-4.38571,-1.04286,0.8,0.202031,1,1,32261.5,42947.9,1692,0.97935092,-0.98388273,128.84082,281.04004,2.20187,343.995,-14.2169,-0.592537,23.0781,26.6274
1980-03-03 02:15:14,1,-4.11429,-0.457143,0.228571,0.447214,1,1,42832.6,47906.6,1692,0.97934908,-0.98400474,128.82861,281.03955,2.45939,347.632,-14.5822,-5.33048,26.5916,28.1226
1980-03-03 02:16:35,1,-4.05,-2.18333,1.46667,0.299073,1,1,29678.5,35765.0,1692,0.97934812,-0.98406583,128.81665,281.03931,2.27115,309.691,21.6705,29.0832,22.135,24.2989
1980-03-03 02:17:54,1,-4.18571,-2.15714,1.71429,0.423301,1,1,33791.4,43187.6,1692,0.97934723,-0.98412687,128.80469,281.03906,2.54966,346.603,-30.0303,0.987201,23.619,26.7016
1980-03-03 02:19:15,1,-4.03333,-2.66667,1.93333,0.223607,1,1,41738.1,38977.9,1692,0.97934538,-0.98424894,128.78882,281.03882,2.27454,348.002,-31.7036,9.51924,26.2497,25.3669
1980-03-03 02:20:36,1,-4.1,-1.94286,1.02857,0.323249,1,1,33318.9,42343.3,1692,0.97934449,-0.98430997,128.77686,281.03857,2.4171,346.964,-27.5737,-2.40971,23.4533,26.4393
1980-03-03 02:21:57,1,-4.25714,-1.87143,1.31429,0.444008,1,1,29303.6,37243.6,1692,0.97934353,-0.98437107,128.76489,281.03833,2.35435,346.086,-25.157,7.37992,21.9947,24.7961
1980-03-03 02:23:20,-1,nan,nan,nan,nan,1,4,nan,nan,1692,0.97934175,-0.98449308,128.75269,281.03784,nan,nan,nan,nan,nan,nan
1980-03-03 02:24:41,1,-4.12857,-2.64286,1.82857,0.252336,1,1,42574.5,39155.8,1692,0.97934079,-0.98455417,128.74097,281.03784,2.19883,350.752,-34.0043,9.87867,26.5114,25.4247
1980-03-03 02:26:02,1,-3.94286,-3.02857,2.35714,0.195876,1,1,40393.4,36206.4,1692,0.979339,-0.98467618,128.72876,281.03735,2.04735,352.865,-39.2591,14.0267,25.8234,24.4484
1980-03-03 02:27:23,1,-2.42857,-4.08571,2.07143,0.675821,1,1,125461.0,55399.0,1692,0.97933805,-0.98473728,128.71289,281.03711,3.02046,380.231,-46.9652,17.8861,45.5105,30.2419
1980-03-03 02:28:44,1,-2.95714,-3.54286,2.28571,0.454007,1,1,46133.6,43125.5,1692,0.97933716,-0.98479831,128.70093,281.03687,2.68222,362.887,-47.1635,11.4464,27.5973,26.6824
1980-03-03 02:30:05,-1,nan,nan,nan,nan,1,4,nan,nan,1692,0.97933531,-0.98492038,128.68896,281.03662,nan,nan,nan,nan,nan,nan
1980-03-03 02:31:26,1,-2.93333,2.5,0.133333,0.417665,1,1,32426.8,55701.7,1692,0.97933441,-0.98498142,128.677,281.03638,2.39682,357.031,24.1741,-7.66468,23.1371,30.3244
1980-03-03 02:32:47,1,-2.4,2.98571,-0.142857,0.421852,1,1,42520.1,37249.5,1692,0.97933346,-0.98504245,128.66504,281.03613,2.32577,371.547,22.3592,-13.9287,26.4945,24.7981
1980-03-03 02:34:08,1,-1.95714,3.14286,-0.457143,0.436124,1,1,25907.6,49414.0,1692,0.97933167,-0.98516452,128.65283,281.03564,2.31522,375.759,26.2517,-19.5413,20.681,28.5616
1980-03-03 02:35:29,1,-1.3,3.35,-0.2,0.374166,1,1,43551.2,44267.5,1692,0.97933072,-0.98522556,128.63696,281.0354,2.47184,383.399,27.1466,-17.5403,26.8138,27.0334
1980-03-03 02:36:50,1,-2.625,2.775,-0.1125,0.474177,1,1,37918.3,62374.7,1692,0.97932982,-0.98528665,128.62524,281.0354,2.31169,363.09,21.8689,-13.4675,25.0197,32.0894
1980-03-03 02:38:11,1,-3.5,1.9875,0.25,0.503581,1,1,22665.0,48027.6,1692,0.97932798,-0.98540866,128.61304,281.03491,2.23831,354.269,12.6466,-12.6929,19.3435,28.1581
1980-03-03 02:39:32,1,-2.55714,2.98571,0.157143,0.298294,1,1,32244.4,55574.8,1692,0.97932708,-0.98546976,128.60107,281.03467,2.46623,367.303,24.3451,-11.445,23.072,30.2898
1980-03-03 02:40:53,1,-2.7,2.3,-0.685714,0.703925,1,1,27642.2,45015.2,1692,0.97932613,-0.98553079,128.58911,281.03442,2.56504,359.89,13.1699,-18.8076,21.3621,27.2607
1980-03-03 02:42:14,1,-3.11429,2.21429,-0.757143,0.44949,1,1,23263.0,52811.9,1692,0.97932428,-0.98565286,128.57715,281.03418,2.17416,361.838,16.699,-17.8558,19.5971,29.5273
1980-03-03 02:43:35,1,-4.26667,1.48333,0.283333,0.254951,1,1,19380.0,48322.9,1692,0.97932339,-0.9857139,128.56128,281.03394,2.04463,349.459,5.62572,-6.84971,17.8869,28.2445
1980-03-03 02:44:56,1,-3.77143,1.92857,-0.0857143,0.702764,1,1,26531.3,46118.7,1692,0.97932249,-0.98577499,128.54932,281.03369,2.16065,354.253,10.9278,-16.5332,20.9285,27.5928
1980-03-03 02:46:17,1,-3.41429,2.15714,0.2,0.222234,1,1,24247.0,47097.5,1692,0.97932065,-0.985897,128.53711,281.0332,2.23752,359.751,20.7229,-8.20483,20.0072,27.8841
1980-03-03 02:47:38,1,-3.75714,2.31429,0.6,0.240747,1,1,26716.5,48189.0,1692,0.97931975,-0.9859581,128.52515,281.03296,2.2053,357.207,19.1612,-4.57097,21.0014,28.2054
1980-03-03 02:48:59,1,-3.48333,1.98333,0.4,0.582619,1,1,21414.4,46583.6,1692,0.9793188,-0.98601913,128.51343,281.03296,2.27957,352.288,14.6666,-2.35348,18.8023,27.7316
1980-03-03 02:50:20,1,-3.72857,1.84286,-0.828571,0.252336,1,1,25841.4,44187.5,1692,0.97931695,-0.9861412,128.50122,281.03247,2.18917,360.45,13.4036,-23.1479,20.6545,27.0089
1980-03-03 02:51:41,1,-3.85714,1.94286,-0.257143,0.479796,1,1,27377.5,50477.1,1692,0.97931606,-0.98620224,128.48535,281.03223,2.0827,357.994,12.1578,-18.4993,21.2596,28.8672
1980-03-03 02:53:02,1,-3.64286,1.85714,0.414286,0.650588,1,1,25143.5,37488.4,1692,0.97931421,-0.98632431,128.47314,281.03174,1.75671,353.351,11.5771,-19.1511,20.3737,24.8775
1980-03-03 02:54:23,1,-3.14286,2.6,1.52857,0.59178,1,1,28852.2,51892.0,1692,0.97931331,-0.98638535,128.46143,281.03174,2.32213,361.495,22.5298,5.03947,21.8247,29.269
1980-03-03 02:55:44,1,-3.47143,2.45714,1.27143,0.451302,1,1,23132.1,46156.2,1692,0.97931236,-0.98644644,128.44946,281.03149,2.0894,358.105,19.6726,4.56543,19.5418,27.6041
1980-03-03 02:57:05,1,-2.7,2.87143,0.557143,0.323249,1,1,25182.3,40529.3,1692,0.97931057,-0.98656845,128.43726,281.03101,2.41119,361.376,20.2272,-4.1401,20.3895,25.8668
1980-03-03 02:58:26,1,-1.88571,2.45714,-0.714286,0.520204,1,1,73770.4,39794.4,1692,0.97930962,-0.98662955,128.42529,281.03076,2.22541,375.671,11.866,-23.3008,34.8979,25.6312
1980-03-03 02:59:47,1,-1.02857,3.02857,-0.385714,0.555125,1,1,44545.0,37766.2,1692,0.97930872,-0.98669058,128.41333,281.03052,2.28938,388.873,25.497,-23.4836,27.118,24.9695
1980-03-03 03:01:08,1,-1.85714,2.87143,-0.957143,0.408581,1,1,26564.7,42762.5,1692,0.97930688,-0.98681265,128.39746,281.03027,2.19569,383.016,25.8242,-27.3906,20.9416,26.5699
1980-03-03 03:02:29,1,-2.42857,2.84286,0.1,0.196915,1,1,46528.5,39238.8,1692,0.97930598,-0.98687369,128.3855,281.03003,2.4177,371.694,24.3005,-12.3975,27.7152,25.4516
1980-03-03 03:03:50,1,-2.25714,2.8,0.0857143,1.27087,1,1,43348.4,63472.5,1692,0.97930503,-0.98693478,128.37354,281.02979,2.53104,372.847,22.1824,-16.8357,26.7513,32.3706
1980-03-03 03:05:11,1,-1.95714,3.12857,0.185714,0.34641,1,1,45886.9,36372.9,1692,0.97930318,-0.98705679,128.36133,281.0293,2.55275,379.677,25.7558,-9.65969,27.5234,24.5045
1980-03-03 03:06:32,-1,nan,nan,nan,nan,1,4,nan,nan,1692,0.97930229,-0.98711789,128.34937,281.02905,nan,nan,nan,nan,nan,nan
1980-03-03 03:07:53,1,-2.84286,2.57143,-0.114286,0.507093,1,1,28551.0,52629.1,1692,0.97930133,-0.98717892,128.33765,281.02905,2.15189,367.118,23.9752,-15.51,21.7104,29.4761
1980-03-03 03:09:14,-1,nan,nan,nan,nan,1,4,nan,nan,1692,0.97929949,-0.98730099,128.32153,281.02856,nan,nan,nan,nan,nan,nan